MDT,Max TemperatureF,Mean TemperatureF,Min TemperatureF,Max Dew PointF,MeanDew PointF,Min DewpointF,Max Humidity, Mean Humidity, Min Humidity, Max Sea Level PressureIn, Mean Sea Level PressureIn, Min Sea Level PressureIn, Max VisibilityMiles, Mean VisibilityMiles, Min VisibilityMiles, Max Wind SpeedMPH, Mean Wind SpeedMPH, Max Gust SpeedMPH,PrecipitationIn, CloudCover, Events, WindDirDegrees
2013-3-1,39,30,21,27,18,7,75,61,43,,,,10,10,10,16,3,22,0.00,1,,242
2013-3-2,44,36,28,30,21,12,86,56,33,,,,10,10,10,17,7,24,0.00,0,,246
2013-3-3,32,26,21,32,26,19,100,84,64,,,,10,6,0,36,11,45,0.00,4,Snow,226
2013-3-4,21,14,6,19,11,0,100,86,49,,,,10,7,0,15,5,22,0.01,5,Fog-Snow,16
2013-3-5,28,19,10,18,5,-8,80,54,37,,,,10,10,10,18,11,24,0.00,0,,228
2013-3-6,37,32,26,30,16,5,100,53,37,,,,10,10,1,23,8,29,0.00,2,Snow,240
2013-3-7,33,28,24,30,19,5,100,63,34,,,,10,9,0,17,9,22,0.00,5,Snow,253
2013-3-8,35,32,28,27,23,19,93,71,56,,,,10,10,3,22,7,30,0.00,5,Snow,332
2013-3-9,28,24,19,27,19,12,100,80,59,,,,10,5,0,32,21,41,0.00,8,Snow,358
2013-3-10,35,26,17,23,13,3,80,55,34,,,,10,10,10,16,6,24,0.00,1,,274
2013-3-11,35,28,21,23,14,1,100,57,27,,,,10,10,10,23,13,38,0.00,2,,282
2013-3-12,35,24,14,23,18,10,100,70,44,,,,10,9,0,20,8,29,0.00,1,Fog,259
2013-3-13,42,37,32,28,23,14,75,57,33,,,,10,10,10,21,14,29,0.00,1,,259
2013-3-14,48,40,33,28,22,16,65,46,34,,,,10,10,10,21,9,26,0.00,0,,248
2013-3-15,50,41,32,25,20,10,65,44,27,,,,10,10,10,18,6,30,0.00,0,,256
2013-3-16,41,36,30,19,12,5,64,40,23,,,,10,10,10,20,6,30,0.00,0,,270
2013-3-17,32,23,14,27,14,3,100,67,41,,,,10,6,0,34,17,50,0.00,6,Snow,260
2013-3-18,26,20,14,18,10,3,93,66,43,,,,10,9,1,30,12,41,0.00,4,Snow,259
2013-3-19,33,25,17,10,0,-13,63,35,16,,,,10,10,10,20,11,33,0.00,0,,266
2013-3-20,33,28,23,30,13,-17,100,60,13,,,,10,8,0,38,11,46,0.00,5,Fog-Snow,242
2013-3-21,32,24,17,30,17,0,100,68,41,,,,10,8,0,26,14,38,0.00,3,Snow-Thunderstorm,263
2013-3-22,17,14,10,12,7,0,93,76,45,,,,10,6,0,17,9,26,0.00,5,Snow,339
2013-3-23,12,9,6,10,6,1,92,85,73,,,,10,4,0,17,12,26,0.00,8,Snow,5
2013-3-24,14,8,1,7,-1,-9,85,65,45,,,,10,9,2,15,9,,0.00,5,Snow,349
2013-3-25,24,16,8,9,2,-2,79,54,33,,,,10,10,7,17,7,22,0.00,0,,242
2013-3-26,32,26,19,28,17,-2,93,68,33,,,,10,8,1,14,8,18,0.03,5,Snow,246
2013-3-27,37,32,26,23,21,16,74,62,52,,,,10,10,10,18,7,26,0.01,1,,271
2013-3-28,44,38,32,27,20,14,65,51,37,,,,10,10,10,15,7,21,0.00,3,,259
2013-3-29,44,38,33,30,26,21,81,63,42,,,,10,10,10,17,9,26,0.00,2,,261
2013-3-30,41,36,32,32,27,25,100,73,56,,,,10,10,1,15,8,20,0.00,2,,323
2013-3-31,50,41,32,27,15,-13,80,41,11,,,,10,10,10,22,10,29,0.00,0,,283